GFSNW_sfc_rhum_198.txt.gz
RH
75 76 75 71 68 74 77 56 96 63 81 99 100 95 76 63 47 46 62 82 80 91 77 100 100 85 70 77 77 100 92 100 92 66 46 49 91 99 99 97 94 91 97 85
70 76 74 78 73 72 56 91 65 53 79 97 96 68 54 47 54 52 87 100 92 68 82 96 74 61 61 75 75 97 82 98 90 69 52 76 88 75 81 100 100 94 98 92
70 71 75 75 78 75 67 93 94 69 86 54 61 56 60 63 40 41 37 88 83 93 78 63 80 53 39 58 57 60 60 91 81 68 49 63 76 62 50 84 91 87 88 82
74 75 73 75 77 80 82 94 85 47 89 89 70 54 48 44 41 31 39 54 54 64 92 69 60 47 43 37 54 49 54 87 79 70 58 47 45 43 39 44 51 78 66 75
80 77 78 79 78 79 98 98 82 55 58 45 49 72 84 67 51 58 54 53 41 54 85 75 79 47 46 50 53 62 51 82 62 72 43 36 47 34 31 33 36 37 36 41
79 80 81 80 80 81 97 96 70 82 70 63 66 64 53 58 47 51 42 69 94 96 81 76 92 92 67 53 59 58 56 62 66 66 36 37 61 53 30 26 23 26 40 32
73 80 82 82 82 82 82 77 85 100 88 70 56 43 44 53 54 71 55 58 60 53 53 48 46 43 39 42 40 40 81 76 67 73 54 86 36 19 18 21 20 21 20 19
75 79 80 82 83 82 94 87 91 88 87 53 47 43 40 42 57 65 57 53 45 45 61 66 63 56 50 39 32 32 36 65 79 82 67 46 36 32 57 63 55 36 72 72
80 79 78 80 79 78 92 96 90 92 94 68 42 61 86 89 81 82 60 39 37 42 64 72 73 56 39 33 22 16 41 59 79 86 90 70 68 42 55 60 81 62 72 84
77 77 78 79 77 78 91 98 86 98 95 58 55 69 72 85 77 63 49 49 51 48 75 81 72 63 40 52 50 52 73 86 90 96 95 76 52 37 39 93 81 82 80 91
75 77 81 82 79 82 94 96 88 92 99 61 48 53 57 61 80 72 60 60 58 73 86 77 66 83 82 88 81 81 69 68 91 66 78 95 60 36 55 67 70 77 78 91
76 77 81 81 79 82 74 92 92 86 99 77 61 52 45 47 63 62 77 84 76 83 77 87 81 86 63 54 68 41 48 50 52 61 73 71 83 81 62 62 64 70 82 94
77 76 72 73 81 81 78 95 95 98 94 61 56 56 41 40 43 43 52 53 65 60 50 66 68 58 40 44 40 40 28 22 53 41 31 33 77 66 46 59 44 55 64 95
76 73 72 77 80 83 70 81 89 78 70 85 59 36 44 32 36 41 41 47 65 65 55 65 67 54 32 33 33 30 28 26 26 30 24 24 24 33 33 30 32 49 62 94
79 78 78 81 78 78 82 84 84 73 96 98 78 43 35 34 38 37 38 47 55 63 69 67 59 37 36 31 31 30 20 29 51 55 37 36 29 30 30 30 28 62 74 91
83 86 86 85 83 80 83 100 82 71 73 95 79 42 43 39 40 41 44 48 51 45 51 55 36 34 42 52 45 27 23 22 23 27 24 26 31 30 19 22 23 35 60 66
79 82 82 82 84 86 88 92 88 70 81 88 77 63 37 33 38 47 53 50 53 59 62 58 44 37 50 67 59 38 34 34 35 35 36 31 19 21 18 18 20 26 37 59
75 74 71 70 71 81 81 64 72 75 77 66 78 68 61 38 55 66 50 66 62 58 57 49 43 38 41 60 46 54 50 48 47 42 42 39 31 28 18 18 19 24 26 46
74 76 75 67 64 92 70 76 75 66 79 90 70 63 84 58 51 55 53 54 70 44 57 50 47 49 59 80 79 71 76 91 93 87 72 52 42 35 30 23 21 26 28 30
72 65 73 100 72 70 68 68 96 91 74 71 69 52 70 44 62 70 56 67 64 66 54 39 48 62 70 85 99 99 98 79 88 74 79 63 50 43 37 34 26 27 28 33
51 85 82 62 67 58 71 97 86 71 65 52 42 39 51 58 62 63 59 72 66 75 74 55 66 91 77 96 100 85 75 73 76 67 52 55 60 55 56 50 35 36 35 62
66 63 52 54 67 73 76 72 54 54 51 40 43 57 38 48 50 63 67 66 62 63 56 68 86 80 77 74 89 80 85 80 77 64 70 66 69 70 71 70 77 91 92 96
57 71 57 64 70 79 74 67 44 58 41 40 41 61 65 58 57 73 71 77 70 53 70 76 84 77 65 66 72 74 72 78 79 82 76 77 79 82 88 87 90 97 98 100
61 72 76 69 75 59 45 44 57 56 49 54 57 70 76 74 84 77 84 63 56 67 76 71 84 64 75 64 71 71 83 92 94 99 96 97 98 98 100 100 100 98 95 99
54 49 70 58 45 46 52 56 55 49 56 68 76 72 72 86 93 67 60 67 66 58 70 94 72 60 62 72 69 72 77 93 93 95 99 100 100 100 100 100 100 99 98 97
48 44 57 58 67 92 92 82 76 61 73 73 68 71 81 87 68 66 65 55 60 91 88 78 66 67 70 72 72 80 82 80 84 90 91 98 100 100 100 100 100 100 100 100
46 65 60 68 68 83 84 67 66 58 80 94 67 79 72 68 76 68 58 78 93 85 84 79 67 67 72 72 78 86 70 69 77 86 94 92 88 84 98 94 99 100 99 100

GFSNW_sfc_rhum_204.txt.gz
RH
70 69 69 70 78 79 82 97 98 80 94 95 100 98 87 63 55 49 80 92 84 92 82 95 97 92 69 73 87 99 98 100 96 68 55 56 71 98 94 98 97 98 98 88
73 73 72 71 74 79 96 99 97 76 94 99 92 91 81 70 67 61 76 94 96 95 98 99 96 86 71 79 90 96 96 99 97 81 78 83 88 99 100 99 98 96 97 91
76 76 75 74 74 76 96 100 99 95 97 97 95 90 86 86 65 64 58 70 70 88 93 91 90 78 61 69 75 76 91 98 88 82 62 80 98 99 99 96 98 94 89 74
79 79 78 77 77 77 97 100 96 84 98 96 96 91 87 84 83 62 57 71 72 89 97 90 91 78 70 61 59 69 98 97 95 82 67 69 72 64 83 88 80 90 65 75
74 74 74 79 82 80 98 100 98 91 88 77 82 93 97 90 77 81 78 77 64 68 93 87 90 73 82 83 76 69 99 96 91 96 63 76 86 73 59 56 53 60 61 58
73 72 74 74 76 83 99 95 94 99 85 85 92 89 75 73 73 69 64 78 93 99 83 73 77 80 85 89 89 96 98 98 98 95 85 79 87 77 53 43 34 41 56 54
74 74 76 76 76 80 98 98 94 96 95 96 85 68 66 72 68 77 66 68 76 68 81 78 79 90 90 93 94 94 98 97 96 94 80 97 56 49 54 70 65 82 77 75
77 77 78 79 79 78 98 97 98 99 98 82 80 82 87 81 82 76 65 63 59 74 76 98 94 93 86 81 82 89 82 92 96 96 89 61 54 60 67 67 73 77 84 72
78 78 78 78 78 78 93 97 94 100 98 90 58 80 80 87 89 90 87 73 70 88 97 98 94 74 68 59 51 48 70 82 90 97 96 87 82 66 52 56 85 61 71 76
79 79 80 81 78 74 92 99 90 99 99 91 78 91 89 92 95 99 89 95 88 88 98 97 96 88 67 79 73 69 85 97 93 95 97 92 83 68 62 93 80 68 78 83
80 79 80 80 79 74 93 100 93 96 100 95 79 76 82 87 95 98 92 99 96 99 98 97 96 96 95 98 90 96 95 96 99 97 98 92 70 73 71 64 60 72 80 83
84 82 80 81 80 80 90 100 96 95 99 93 92 83 74 76 77 97 95 96 98 100 98 98 96 100 99 92 94 63 91 85 88 84 83 75 85 71 60 64 73 76 84 77
84 82 79 79 84 84 85 99 99 99 100 96 97 81 58 62 75 81 92 89 79 92 90 94 93 90 89 89 78 61 52 54 78 60 49 52 63 79 72 69 79 75 79 74
86 83 80 77 77 76 82 92 97 96 93 98 87 68 74 60 76 73 74 71 78 81 90 94 96 90 68 66 57 60 53 50 49 58 53 56 60 65 71 70 73 56 65 80
80 83 82 80 81 82 81 86 96 92 98 98 96 82 65 50 68 67 66 69 77 92 93 97 91 82 78 72 66 59 59 73 85 87 65 70 66 63 61 57 48 43 72 77
81 78 75 75 79 83 87 100 94 91 88 100 99 84 68 57 54 57 63 74 83 90 93 91 83 71 74 81 76 71 71 67 65 74 68 78 69 64 56 57 55 48 77 76
83 81 80 79 78 91 97 96 85 85 93 96 98 93 77 72 70 79 83 82 91 93 93 91 79 72 82 87 83 86 82 84 81 77 80 79 73 82 73 74 65 51 63 70
82 84 81 80 79 83 91 95 78 82 96 95 94 94 87 85 85 91 91 89 92 90 89 88 80 75 80 93 86 87 79 71 74 75 72 71 79 82 83 77 67 54 63 65
83 82 75 89 92 96 90 76 77 83 92 98 98 97 93 86 89 96 93 91 94 85 89 87 82 82 89 90 89 78 76 80 76 71 81 85 84 83 75 71 70 69 53 62
74 84 93 93 89 74 75 88 98 96 97 99 98 93 94 92 98 96 94 97 96 93 82 81 91 93 90 88 87 94 75 72 70 87 89 94 85 88 93 91 90 89 91 77
90 98 97 88 74 87 97 97 98 96 93 98 97 95 93 91 89 93 95 96 97 97 89 82 88 99 94 97 97 74 79 71 72 73 84 85 82 89 92 89 90 92 95 97
89 84 94 96 90 94 90 95 83 84 72 87 83 76 74 82 89 92 93 88 93 92 86 92 97 90 93 95 92 69 67 68 71 77 81 77 76 79 81 82 84 85 95 99
91 98 96 93 88 87 91 90 87 91 87 93 91 87 87 86 92 94 95 97 94 84 95 96 95 92 89 89 83 70 65 74 76 75 83 79 84 88 94 98 98 98 98 99
98 93 95 88 91 91 91 78 86 84 85 88 92 95 93 98 95 96 98 88 89 94 97 89 98 90 93 84 76 72 78 89 91 95 96 99 97 98 91 98 99 99 99 98
93 83 91 88 81 89 92 94 88 83 89 90 95 96 96 98 97 94 90 91 97 92 89 98 98 89 87 88 82 73 73 92 92 93 98 99 99 98 96 97 99 98 98 98
89 76 84 84 89 92 95 96 96 88 96 98 96 96 96 97 98 95 89 80 87 90 99 99 97 89 89 92 88 81 69 82 89 91 94 99 97 99 99 99 99 99 98 98
71 88 96 92 94 92 95 96 89 88 92 96 98 97 92 94 99 98 96 98 98 99 99 95 89 90 91 88 86 93 87 82 88 94 95 98 99 99 99 98 99 99 99 99

GFSNW_sfc_rhum_210.txt.gz
RH
79 79 74 73 73 74 87 98 98 74 98 91 97 98 90 68 67 72 98 99 96 99 98 97 99 95 80 83 87 98 94 99 97 93 85 78 99 100 99 98 97 98 97 93
78 78 81 80 78 77 95 98 98 84 95 100 99 92 85 82 80 72 76 86 97 98 98 96 81 89 81 82 92 100 98 99 98 94 83 81 94 95 99 98 99 96 97 94
74 73 75 76 79 80 95 100 100 94 99 88 92 95 88 79 72 78 74 76 77 76 79 85 94 82 64 72 74 66 85 99 98 97 93 92 98 96 95 93 98 94 94 89
74 73 72 72 74 80 97 100 96 83 98 94 97 84 87 91 92 77 69 68 68 83 95 84 84 79 72 58 55 77 90 98 98 86 88 87 82 87 91 96 84 90 85 86
74 74 75 76 76 78 99 100 98 97 97 84 94 93 96 88 81 84 82 84 78 80 92 86 91 76 75 79 70 77 86 96 92 95 75 82 91 84 89 86 86 79 76 75
74 74 75 77 79 82 99 99 99 99 92 88 94 91 81 77 76 73 69 82 93 98 82 72 76 81 79 78 88 88 92 90 98 91 84 86 99 86 79 72 63 72 87 64
74 75 78 78 78 81 97 99 99 100 93 96 85 73 67 68 73 82 72 72 81 64 66 75 83 94 96 95 93 84 89 82 92 97 91 99 58 66 63 75 66 67 71 75
78 78 78 78 78 78 98 98 99 99 98 87 84 91 91 83 75 74 69 66 60 66 78 94 97 92 95 92 89 94 77 82 97 99 94 71 62 59 66 58 54 70 75 72
80 79 78 78 78 79 94 99 96 100 98 95 68 87 90 94 93 87 81 64 67 78 94 98 96 80 72 66 58 81 84 83 94 100 99 96 70 70 57 59 66 67 75 66
82 80 80 80 80 80 95 99 92 99 99 93 83 95 93 85 90 98 92 85 88 90 99 100 96 83 91 72 56 85 92 97 95 97 97 87 84 69 62 78 71 74 75 71
81 80 79 82 79 79 92 98 93 96 100 94 84 75 84 94 96 97 88 93 96 99 98 97 96 97 94 87 81 89 92 97 96 94 97 94 72 74 70 70 57 67 72 70
82 81 81 80 78 76 79 100 97 96 100 94 94 87 79 69 76 91 99 98 99 100 98 98 96 96 96 84 99 88 96 86 92 88 87 80 82 74 68 65 61 59 63 64
81 81 82 82 78 76 85 98 99 99 100 98 97 86 68 71 77 80 95 99 99 95 97 99 98 88 87 95 91 77 80 72 90 79 63 67 63 65 71 78 77 74 74 72
78 80 80 78 78 77 79 96 98 97 99 98 86 68 79 69 75 75 74 77 84 85 93 94 94 87 75 74 73 72 62 56 54 62 53 61 60 64 78 79 77 76 72 73
78 79 81 79 76 79 87 86 93 93 98 99 96 79 78 78 82 82 84 82 85 90 90 97 94 82 83 77 71 72 66 60 82 82 69 80 78 82 82 85 83 80 81 76
81 78 82 81 78 84 92 100 88 85 90 100 97 84 77 78 83 88 93 91 91 92 90 92 89 81 80 87 83 65 78 85 87 85 89 93 90 85 82 79 89 89 88 84
80 81 84 82 80 96 93 94 83 81 96 100 96 95 80 83 80 89 90 89 92 90 92 97 90 80 89 90 84 60 84 91 91 85 76 74 76 78 76 66 87 88 89 86
79 77 82 77 77 81 89 91 83 83 97 97 93 94 84 86 97 95 96 98 96 95 94 94 92 82 87 93 72 91 88 83 82 73 59 66 75 75 71 71 71 80 85 85
76 72 76 89 92 96 88 75 80 90 95 98 94 97 97 85 93 98 95 94 96 89 96 93 87 85 90 72 83 89 85 86 77 66 63 73 90 78 76 76 74 79 82 84
70 83 89 93 91 73 78 85 95 95 98 96 87 96 97 95 97 96 95 97 97 94 85 90 96 89 73 87 88 87 83 83 82 87 74 85 82 77 74 75 74 78 78 81
92 97 99 91 84 90 96 98 95 96 97 98 98 98 98 94 94 94 96 96 97 98 90 93 94 96 89 94 96 88 82 75 69 70 77 81 83 86 86 82 78 75 81 86
92 88 90 92 91 93 88 95 87 95 79 89 95 87 92 88 92 93 94 89 94 97 90 94 95 85 97 97 96 84 76 76 74 67 72 80 82 84 88 87 91 94 97 96
87 98 96 84 87 86 85 95 87 94 95 93 91 91 92 91 94 95 96 97 97 86 97 97 92 87 96 94 87 81 76 74 70 68 70 76 88 92 94 94 92 97 97 97
90 97 100 89 88 91 93 89 87 85 90 87 95 98 95 98 95 97 98 92 94 98 100 91 94 92 97 87 83 78 79 89 83 73 70 88 98 99 97 96 93 98 97 98
98 88 97 93 84 90 96 97 94 86 91 93 96 97 98 98 97 96 92 96 97 96 93 93 93 91 90 86 80 83 80 89 86 88 92 98 98 98 99 98 93 98 97 97
96 98 95 91 93 93 93 97 96 92 98 98 97 98 98 97 97 96 93 90 95 90 94 97 96 92 91 88 85 81 80 82 90 96 87 80 91 99 99 98 98 99 99 100
90 96 97 94 94 88 91 91 88 92 93 95 99 100 93 95 96 97 96 96 97 97 98 98 98 98 97 98 92 93 88 84 90 96 86 74 86 91 92 97 99 97 98 99

GFSNW_sfc_rhum_216.txt.gz
RH
72 73 72 73 75 76 76 63 92 72 82 84 100 87 55 43 38 31 55 70 65 67 84 96 90 90 98 88 96 98 92 100 93 93 96 94 99 100 100 99 100 100 97 99
70 71 72 71 71 74 76 93 66 63 88 92 86 62 53 49 49 44 39 51 58 80 91 95 75 98 77 89 80 96 84 99 98 86 84 82 88 99 100 100 100 100 99 100
72 72 72 72 73 71 87 98 93 68 85 63 86 74 59 54 42 66 51 45 41 56 60 60 77 66 84 72 54 73 74 100 100 89 79 73 90 80 95 100 100 97 91 99
74 75 75 77 80 74 88 100 84 59 83 82 86 72 70 60 54 52 64 80 56 80 78 56 48 56 43 39 50 63 74 90 71 59 44 44 49 46 52 82 76 94 74 75
72 71 71 75 78 75 90 99 83 66 57 52 61 69 75 61 48 58 59 77 72 81 85 53 66 48 47 48 43 47 51 76 56 62 37 33 41 36 37 34 38 50 56 51
73 73 75 75 76 80 90 84 81 94 68 58 69 60 55 48 64 55 47 54 65 75 53 41 41 43 45 48 55 57 58 62 66 55 40 46 64 62 35 26 27 32 41 31
76 75 76 77 77 79 90 93 90 100 84 68 58 50 50 52 51 77 53 48 52 40 37 39 37 39 40 42 44 47 80 71 62 60 42 72 30 30 31 34 28 26 28 30
78 78 78 80 78 77 91 90 100 100 91 56 60 62 71 56 48 60 58 52 44 44 52 64 61 48 48 40 37 38 44 64 75 73 47 33 26 23 34 36 29 23 25 26
79 80 81 80 75 76 84 88 97 100 100 74 69 82 84 75 59 56 54 45 42 49 62 73 77 52 34 34 48 52 45 55 81 67 71 54 36 35 32 31 32 29 29 28
79 79 80 80 78 75 74 83 90 99 99 50 61 67 69 62 61 70 58 52 61 58 77 80 67 56 39 47 42 47 82 92 89 76 76 48 42 33 36 52 57 41 37 37
77 77 79 79 79 76 71 74 92 94 96 61 63 57 63 75 65 74 79 73 74 82 90 80 71 69 57 56 43 57 80 86 82 75 87 72 44 44 50 57 41 43 40 41
77 76 77 79 78 76 74 91 91 94 98 71 65 59 53 57 56 70 78 78 95 97 94 95 89 73 68 58 64 54 70 60 74 60 69 56 56 56 48 45 50 48 49 44
76 76 75 78 79 76 73 78 92 98 100 71 62 56 52 54 57 55 90 85 81 100 98 98 89 92 57 67 65 58 49 47 59 50 42 41 46 43 43 45 49 48 45 46
76 75 75 75 80 76 72 60 78 83 78 90 57 50 60 55 56 57 60 60 79 76 79 82 69 61 46 59 54 48 42 46 40 41 34 33 37 42 50 47 47 46 42 50
76 75 75 74 77 76 66 64 75 77 88 93 72 54 52 58 65 61 61 65 74 77 78 79 56 41 45 37 41 37 30 32 44 49 46 44 40 49 50 52 48 45 50 55
75 75 75 74 79 82 58 99 60 60 76 88 83 48 53 60 60 64 67 66 67 74 68 54 43 50 52 45 38 31 31 37 38 38 51 53 54 52 45 49 53 51 52 52
75 76 75 73 79 64 70 66 60 69 77 88 73 61 51 57 59 56 66 72 74 77 68 56 49 45 57 52 46 30 30 38 49 49 51 48 45 48 51 51 52 54 52 53
75 76 70 75 78 78 71 59 68 72 71 75 77 62 57 54 67 71 66 74 70 64 64 54 52 45 48 58 32 37 44 46 52 50 46 45 44 44 47 53 55 60 59 60
76 72 73 66 62 82 57 77 75 67 74 86 69 72 78 55 61 68 67 59 76 54 62 54 52 42 58 40 39 34 45 50 49 48 47 44 49 50 54 59 60 65 62 64
75 50 65 100 64 78 72 68 95 84 78 80 68 58 80 63 65 74 63 67 62 61 46 45 53 44 43 58 68 56 53 52 54 61 56 56 59 58 62 64 65 62 68 84
53 81 79 54 71 59 72 98 93 74 75 63 64 62 62 64 75 66 63 75 63 62 52 55 53 60 54 77 94 62 57 52 52 52 53 55 55 58 61 67 70 71 76 88
64 71 69 70 68 73 74 79 65 66 51 58 55 49 47 49 58 72 63 60 59 56 58 72 68 50 65 80 82 63 57 54 53 50 50 52 52 55 62 64 74 79 84 94
59 81 74 71 73 89 76 71 58 74 57 56 51 66 59 53 63 80 72 83 72 53 78 66 60 59 62 73 67 64 57 56 54 52 50 52 51 58 69 72 83 86 88 93
71 76 84 82 79 61 53 44 50 58 55 54 55 64 71 72 86 84 91 63 64 74 77 64 69 71 77 68 68 63 64 67 64 57 57 84 88 91 93 100 98 96 96 97
71 78 84 74 52 56 60 60 59 54 53 61 72 68 68 75 87 71 66 77 73 61 60 84 83 74 66 70 69 67 65 86 76 67 72 98 95 87 96 100 93 87 94 97
76 70 82 66 74 87 90 79 72 58 66 69 64 66 81 76 69 72 71 61 66 70 69 83 77 73 77 76 76 77 75 73 70 64 71 75 88 92 77 90 93 93 99 95
68 83 75 73 69 78 77 66 57 57 69 77 69 84 80 65 76 72 61 69 78 80 82 78 76 81 81 83 86 98 96 81 69 64 66 69 66 61 65 69 70 76 80 98